Location: Newark
(49.8348°N, 24.0280°E)
Time: 02:38:00
(UTC+00:00)

Explorer 7 - Pass Details

Date: 26 January 2020
Orbit: 485 x 679 km, 50.3° (Epoch: 26 February)

Event Time Altitude Azimuth Distance (km) Brightness Sun altitude
Rises 03:40:20 0° 277° (W) 2,598 - -23.2°
Reaches altitude 10° 03:44:10 10° 238° (WSW) 1,748 - -22.6°
Maximum altitude 03:45:05 11° 224° (SW) 1,715 - -22.5°
Drops below altitude 10° 03:46:01 10° 211° (SSW) 1,768 - -22.3°
Exits shadow 03:47:48 - 189° (S) 2,083 9.7 -22.0°
Sets 03:50:01 0° 173° (S) 2,710 10.5 -21.7°
